Погода в Анопино

Россия / Владимирская область     55°41′59″N   40°39′56″E
темп.,
°C
ветер,
м/с
пор.,
м/с
влажн.,
%
обл.,
%
осадки,
мм/ч
давл.,
гПа
погр.,
м
19 апреля, пн
пн1900:00+6св398398 0.0 1023351
03:00+4всв41091100 0.0 1024435
06:00+3всв5118795 0.0 1024501
09:00+6всв61067100 0.0 1024663
12:00+8всв6955100 0.0 10241058
15:00+10всв6947100 0.0 10241546
18:00+8всв61049100 0.0 10241396
21:00+5в51150100 0.0 1025894
20 апреля, вт
вт2000:00+4в5125694 0.0 1025744
03:00+3в51262100 0.0 1025632
06:00+2в51266100 0.0 1024619
09:00+3в51175100 0.1 1024716
12:00+3в51394100 1.3 1023779
15:00+2в51596100 3.3 1022789
18:00+3в51497100 1.1 1020990
21:00+5вюв61680100 2.6 10161118
21 апреля, ср
ср2100:00+5в81880100 0.5 10121060
03:00+3вюв71895100 6.6 10081209
06:00+4вюв71792100 1.8 1006948
09:00+6вюв81692100 3.0 10031098
12:00+7юв71691100 0.8 10021413
15:00+5ю71489100 1.6 10041199
18:00+4ююз71496100 0.2 10081075
21:00+4ююз61186100 0.2 10121154
22 апреля, чт
чт2200:00+4ю41186100 0.1 1013452
03:00+3ю311955 0.1 1015333
06:00+3ю399736 0.0 1016275
09:00+8ююз477519 0.0 1017815
12:00+10юз476398 0.1 10171418
15:00+8ююз477998 0.2 1018882
18:00+10ююз367159 0.1 1019448
21:00+6ю279058 0.1 1020116
23 апреля, пт
пт2300:00+5ююв28957 0.0 1020152
03:00+5ююв389668 0.0 1020154
06:00+5ююв39945 0.0 1019198
09:00+12ю486955 0.0 1019546
12:00+16ю695310 0.3 10181664
15:00+16ю5956100 1.6 10171770
18:00+14ю511659 0.4 1017766
21:00+11ююв4137830 0.4 1017405